This is the latest recevied weather packets stored in our database for station/object K5NWZ. If no packets are shown the sender has not sent any weather packets the latest 10 day(s).
| Time | Temp. | Humidity | Pressure | Rain* | Wind** | Luminosity | Snow |
|---|---|---|---|---|---|---|---|
| 1777800306 | 7.22° C | 51% | 1024.5 hPa | 0 mm | - | 0 W/m² | - |
| 1777800002 | 7.22° C | 50% | 1024.6 hPa | 0 mm | - | 0 W/m² | - |
| 1777799697 | 7.22° C | 49% | 1024.7 hPa | 0 mm | - | 0 W/m² | - |
| 1777799395 | 7.22° C | 49% | 1024.5 hPa | 0 mm | - | 0 W/m² | - |
| 1777799090 | 7.22° C | 50% | 1024.6 hPa | 0 mm | - | 0 W/m² | - |
| 1777798786 | 7.78° C | 49% | 1024.5 hPa | 0 mm | - | 0 W/m² | - |
| 1777798483 | 7.78° C | 47% | 1024.5 hPa | 0 mm | - | 0 W/m² | - |
| 1777798180 | 7.78° C | 47% | 1024.2 hPa | 0 mm | - | 0 W/m² | - |
| 1777797877 | 7.78° C | 48% | 1024.4 hPa | 0 mm | - | 0 W/m² | - |
| 1777797575 | 8.33° C | 46% | 1024.7 hPa | 0 mm | - | 0 W/m² | - |
| 1777797271 | 8.33° C | 47% | 1024.4 hPa | 0 mm | - | 0 W/m² | - |
| 1777796967 | 8.33° C | 46% | 1024.5 hPa | 0 mm | - | 0 W/m² | - |
| 1777796665 | 8.89° C | 47% | 1024.5 hPa | 0 mm | - | 0 W/m² | - |
| 1777796360 | 8.89° C | 47% | 1024.6 hPa | 0 mm | - | 0 W/m² | - |
| 1777796051 | 8.89° C | 47% | 1024.6 hPa | 0 mm | - | 0 W/m² | - |
| 1777795748 | 9.44° C | 42% | 1024.7 hPa | 0 mm | - | 0 W/m² | - |
| 1777795445 | 10° C | 39% | 1024.5 hPa | 0 mm | - | 0 W/m² | - |
| 1777795141 | 10° C | 39% | 1024.7 hPa | 0 mm | - | 0 W/m² | - |
| 1777794836 | 10° C | 40% | 1024.9 hPa | 0 mm | - | 0 W/m² | - |
| 1777794534 | 10.56° C | 39% | 1024.8 hPa | 0 mm | - | 0 W/m² | - |
| 1777794229 | 10.56° C | 40% | 1025.2 hPa | 0 mm | - | 0 W/m² | - |
| 1777793926 | 11.11° C | 40% | 1025.2 hPa | 0 mm | - | 0 W/m² | - |
| 1777793623 | 10.56° C | 38% | 1024.9 hPa | 0 mm | - | 0 W/m² | - |
| 1777793320 | 10.56° C | 36% | 1025.4 hPa | 0 mm | - | 0 W/m² | - |
| 1777793017 | 10.56° C | 36% | 1025.4 hPa | 0 mm | - | 0 W/m² | - |
* Rain latest hour (hover to see other rain measurements)
** Current wind speed in m/s (hover to see current wind gust speed)